This demonstration page uses our WeatherBlox Daily Observations layout. Learn more.

Left ArrowRight Arrow

39.92423, -83.80882

Hourly Observations for June 3, 2015

Temp ( °F °C ) Dew Point ( °F °C ) Humidity (%) Winds ( mph kmh ) Pressure ( in mb ) Visibility ( mi km ) Precip ( " mm )
12:31 am 00:31 Mostly Cloudy 55 13 55 13 100 100 ESE 5 7 30.12 1020 7 11.26538 0 0
12:42 am 00:42 Cloudy 55 13 55 13 100 100 ESE 5 7 30.12 1020 8 12.87472 0 0
12:56 am 00:56 Cloudy 56 13.3 55 12.7 96 96 E 3 6 30.13 1020 8 12.87472 0 0
1:56 am 01:56 Clear with Mist and Fog 53 11.6 52 11.1 97 97 E 5 7 30.11 1020 6 9.65604 0 0
2:30 am 02:30 Mostly Cloudy with Mist and Fog 54 12 54 12 100 100 E 3 6 30.12 1020 6 9.65604 0 0
2:56 am 02:56 Cloudy 54 12.2 54 12.2 100 100 NE 3 6 30.1 1019 7 11.26538 0 0
3:56 am 03:56 Cloudy 56 13.3 55 12.7 96 96 NNE 3 6 30.08 1019 7 11.26538 0 0
4:56 am 04:56 Cloudy with Mist and Fog 54 12.2 54 12.2 100 100 E 5 7 30.08 1019 5 8.0467 0 0
5:56 am 05:56 Cloudy with Mist and Fog 56 13.3 56 13.3 100 100 NNE 3 6 30.08 1019 6 9.65604 0 0
6:36 am 06:36 Cloudy with Mist and Fog 55 13 55 13 100 100 N 5 7 30.09 1019 5 8.0467 0 0
6:56 am 06:56 Cloudy with Mist and Fog 57 13.8 56 13.3 97 97 NNW 3 6 30.09 1019 5 8.0467 0 0
7:56 am 07:56 Cloudy with Mist and Fog 59 15 57 13.8 93 93 NE 3 6 30.1 1019 5 8.0467 0 0
8:56 am 08:56 Cloudy with Mist and Fog 61 16.1 57 13.8 86 86 ENE 5 7 30.11 1020 6 9.65604 0 0
9:34 am 09:34 Cloudy with Mist and Fog 61 16 57 14 88 88 ENE 7 11 30.12 1020 5 8.0467 0 0
9:56 am 09:56 Cloudy with Mist and Fog 62 16.6 58 14.4 87 87 E 7 11 30.11 1020 5 8.0467 0 0
10:56 am 10:56 Cloudy with Mist and Fog 64 17.7 60 15.5 87 87 ENE 6 9 30.1 1019 5 8.0467 0 0
11:08 am 11:08 Cloudy with Haze 64 18 61 16 88 88 ENE 6 9 30.12 1020 5 8.0467 0 0
11:56 am 11:56 Mostly Cloudy with Haze 67 19.4 59 15 76 76 VRB 3 6 30.09 1019 5 8.0467 0 0
12:56 pm 12:56 Cloudy 68 20 60 15.5 75 75 E 8 13 30.09 1019 7 11.26538 0 0
1:56 pm 13:56 Mostly Cloudy 72 22.2 60 15.5 66 66 VRB 3 6 30.08 1019 8 12.87472 0 0
2:56 pm 14:56 Mostly Cloudy 72 22.2 59 15 64 64 ESE 6 9 30.07 1018 9 14.48406 0 0
3:56 pm 15:56 Cloudy 72 22.2 61 16.1 68 68 NE 6 9 30.05 1018 8 12.87472 0 0
4:56 pm 16:56 Mostly Cloudy 74 23.3 61 16.1 64 64 E 7 11 30.04 1017 8 12.87472 0 0
5:56 pm 17:56 Partly Cloudy 75 23.8 61 16.1 62 62 VRB 7 11 30.03 1017 8 12.87472 0 0
6:56 pm 18:56 Mostly Sunny 73 22.7 61 16.1 66 66 ESE 8 13 30.02 1017 7 11.26538 0 0
7:56 pm 19:56 Mostly Cloudy 71 21.6 61 16.1 71 71 ESE 5 7 30.04 1017 7 11.26538 0 0
8:56 pm 20:56 Sunny 66 18.8 60 15.5 81 81 SE 5 7 30.04 1017 7 11.26538 0 0
9:56 pm 21:56 Clear 63 17.2 60 15.5 90 90 SE 3 6 30.05 1018 8 12.87472 0 0
10:56 pm 22:56 Mostly Cloudy 62 16.6 60 15.5 93 93 Calm 30.06 1018 8 12.87472 0 0
11:56 pm 23:56 Mostly Cloudy 62 16.6 60 15.5 93 93 E 3 6 30.04 1017 7 11.26538 0 0

Powered by AerisWeather